Theta_e
318 317 317 317 317 317 317 318 323 323 323 325 322 320 320 320 321 321 320 320 317 316
316 317 317 318 319 319 322 324 324 324 325 324 323 320 320 319 319 319 318 318 316 317
320 321 321 321 320 319 318 319 321 322 323 324 324 324 321 319 319 318 319 319 318 317
318 317 317 317 316 317 317 317 318 318 320 322 322 324 322 320 321 321 320 319 318 316
316 315 312 311 314 315 315 315 315 316 317 319 322 322 322 319 320 320 319 318 317 314
314 314 313 313 313 314 313 313 313 314 314 317 319 319 320 319 318 317 316 316 315 312
312 313 312 310 311 312 313 312 313 314 315 316 317 316 315 314 312 311 311 311 312 312
312 311 309 309 311 311 312 312 312 312 313 313 314 314 312 311 310 309 309 310 310 310
310 309 309 310 311 311 311 311 312 311 312 312 313 314 312 311 309 308 307 306 307 312
309 308 308 309 309 309 309 310 310 311 311 311 312 314 312 310 306 305 305 304 304 304
308 307 307 307 307 307 308 308 308 308 310 310 311 312 311 309 304 303 301 301 301 298
307 306 306 305 305 306 306 306 306 307 308 308 308 310 307 303 299 298 298 298 297 295
306 305 304 305 305 304 305 304 305 305 306 307 305 308 305 301 297 295 295 295 297 304
305 305 305 305 305 304 304 303 303 302 303 304 305 305 305 302 296 294 293 293 293 298
Wind_Speed
7 4 5 5 4 4 3 3 4 4 4 5 5 5 5 4 5 6 5 7 5 3
5 6 5 5 4 3 2 3 4 4 3 3 5 6 6 4 6 6 5 6 6 5
4 4 5 5 5 5 4 4 4 3 3 3 3 5 6 4 5 6 4 4 6 5
7 7 7 6 6 5 4 4 1 2 2 4 4 4 5 6 7 8 6 5 6 6
7 7 7 6 5 4 4 4 2 0 0 1 4 4 4 5 6 6 6 7 7 7
7 6 5 5 4 4 3 2 1 1 2 2 4 4 3 4 5 6 4 3 4 4
7 6 6 5 3 3 2 3 2 2 3 3 4 5 7 8 8 8 7 5 5 5
7 7 6 5 3 1 4 5 4 5 5 6 6 5 9 10 10 10 9 7 6 7
8 7 6 5 3 4 7 6 6 6 8 9 7 18 19 13 10 10 11 11 10 10
8 7 6 6 5 7 8 7 7 8 9 11 12 23 23 20 11 10 11 10 10 10
8 8 7 7 5 8 8 8 8 10 10 11 12 23 23 22 13 12 11 10 10 11
9 8 8 8 6 8 9 8 8 9 10 11 12 23 23 17 12 12 12 9 9 8
9 9 9 8 8 8 9 9 9 11 11 17 13 18 21 16 9 11 8 7 7 14
9 9 9 9 8 9 11 11 11 10 9 9 11 13 19 18 9 8 7 6 4 6
Wind_Direction
103 106 102 111 123 132 140 155 161 222 205 176 150 150 148 141 149 162 168 161 164 175
108 113 125 118 118 143 134 147 166 191 203 169 152 159 154 148 162 169 174 183 161 171
123 115 100 96 95 96 86 88 103 142 162 187 190 165 164 164 165 171 179 159 169 175
90 79 78 80 65 64 77 78 57 32 51 179 198 187 173 178 168 176 166 159 171 173
94 91 78 76 67 67 75 67 99 92 251 258 203 178 192 184 183 162 156 167 177 184
89 91 91 79 71 77 84 45 359 119 197 189 189 187 144 152 100 87 78 92 145 140
115 114 106 96 94 94 126 129 98 122 178 175 107 97 102 92 90 85 80 75 86 112
113 101 98 97 84 115 86 65 65 72 83 85 100 108 103 99 95 95 87 74 75 94
103 102 102 90 89 87 71 59 75 78 87 81 87 107 104 100 94 88 82 75 61 72
111 110 103 92 92 89 78 80 77 83 90 94 100 102 99 97 87 87 84 85 84 82
119 111 105 96 93 90 82 82 83 80 81 91 99 105 104 97 94 86 77 79 90 92
123 117 113 102 102 93 95 88 84 86 91 95 99 107 103 96 86 83 77 72 77 96
122 121 116 111 108 99 95 95 93 91 92 105 106 103 105 101 98 90 83 61 56 95
120 121 120 112 116 113 110 105 97 92 88 91 102 108 108 106 101 104 98 86 66 80